Year,Month,Day,Hour,Minute,Value (Times are PST for temperature in C)
2011,04,24,00,00,6.10
2011,04,24,00,01,6.10
2011,04,24,00,02,6.10
2011,04,24,00,03,6.10
2011,04,24,00,04,6.10
2011,04,24,00,05,6.10
2011,04,24,00,06,6.20
2011,04,24,00,07,6.20
2011,04,24,00,08,6.20
2011,04,24,00,09,6.20
2011,04,24,00,10,6.20
2011,04,24,00,11,6.20
2011,04,24,00,12,6.10
2011,04,24,00,13,6.10
2011,04,24,00,14,6.10
2011,04,24,00,15,6.10
2011,04,24,00,16,6.10
2011,04,24,00,17,6.00
2011,04,24,00,18,6.00
2011,04,24,00,19,6.00
2011,04,24,00,20,5.90
2011,04,24,00,21,5.90
2011,04,24,00,22,5.90
2011,04,24,00,23,5.90
2011,04,24,00,24,5.90
2011,04,24,00,25,5.90
2011,04,24,00,28,5.90
2011,04,24,00,29,5.80
2011,04,24,00,30,5.80
2011,04,24,00,31,5.80
2011,04,24,00,32,5.90
2011,04,24,00,33,5.90
2011,04,24,00,34,5.80
2011,04,24,00,35,5.80
2011,04,24,00,36,5.80
2011,04,24,00,37,5.80
2011,04,24,00,38,5.80
2011,04,24,00,39,5.80
2011,04,24,00,40,5.80
2011,04,24,00,41,5.80
2011,04,24,00,42,5.80
2011,04,24,00,43,5.80
2011,04,24,00,44,5.80
2011,04,24,00,45,5.80
2011,04,24,00,46,5.80
2011,04,24,00,47,5.90
2011,04,24,00,48,5.90
2011,04,24,00,49,5.90
2011,04,24,00,50,5.90
2011,04,24,00,51,5.80
2011,04,24,00,52,5.80
2011,04,24,00,53,5.80
2011,04,24,00,54,5.80
2011,04,24,00,55,5.80
2011,04,24,00,56,5.80
2011,04,24,00,57,5.80
2011,04,24,00,58,5.70
2011,04,24,00,59,5.70
2011,04,24,01,00,5.70
2011,04,24,01,01,5.60
2011,04,24,01,02,5.60
2011,04,24,01,03,5.60
2011,04,24,01,04,5.60
2011,04,24,01,05,5.60
2011,04,24,01,06,5.60
2011,04,24,01,07,5.60
2011,04,24,01,08,5.60
2011,04,24,01,09,5.60
2011,04,24,01,10,5.60
2011,04,24,01,11,5.60
2011,04,24,01,12,5.60
2011,04,24,01,13,5.60
2011,04,24,01,14,5.60
2011,04,24,01,15,5.60
2011,04,24,01,16,5.60
2011,04,24,01,17,5.50
2011,04,24,01,20,5.50
2011,04,24,01,21,5.50
2011,04,24,01,22,5.40
2011,04,24,01,23,5.40
2011,04,24,01,24,5.40
2011,04,24,01,25,5.40
2011,04,24,01,26,5.40
2011,04,24,01,27,5.40
2011,04,24,01,28,5.40
2011,04,24,01,29,5.30
2011,04,24,01,30,5.30
2011,04,24,01,31,5.30
2011,04,24,01,32,5.30
2011,04,24,01,33,5.30
2011,04,24,01,34,5.20
2011,04,24,01,35,5.20
2011,04,24,01,36,5.20
2011,04,24,01,37,5.20
2011,04,24,01,38,5.20
2011,04,24,01,39,5.20
2011,04,24,01,40,5.20
2011,04,24,01,41,5.20
2011,04,24,01,44,5.10
2011,04,24,01,45,5.10
2011,04,24,01,46,5.10
2011,04,24,01,47,5.10
2011,04,24,01,48,5.00
2011,04,24,01,49,5.00
2011,04,24,01,50,5.00
2011,04,24,01,51,5.00
2011,04,24,01,52,4.90
2011,04,24,01,53,4.90
2011,04,24,01,54,4.90
2011,04,24,01,55,4.90
2011,04,24,01,56,4.90
2011,04,24,01,57,4.90
2011,04,24,01,58,4.90
2011,04,24,01,59,4.90
2011,04,24,02,00,4.80
2011,04,24,02,01,4.80
2011,04,24,02,02,4.80
2011,04,24,02,03,4.80
2011,04,24,02,04,4.80
2011,04,24,02,05,4.80
2011,04,24,02,06,4.80
2011,04,24,02,07,4.80
2011,04,24,02,08,4.80
2011,04,24,02,09,4.80
2011,04,24,02,10,4.70
2011,04,24,02,11,4.70
2011,04,24,02,12,4.70
2011,04,24,02,13,4.70
2011,04,24,02,14,4.70
2011,04,24,02,15,4.70
2011,04,24,02,16,4.70
2011,04,24,02,17,4.70
2011,04,24,02,18,4.70
2011,04,24,02,19,4.70
2011,04,24,02,20,4.70
2011,04,24,02,21,4.70
2011,04,24,02,22,4.70
2011,04,24,02,23,4.60
2011,04,24,02,24,4.60
2011,04,24,02,25,4.60
2011,04,24,02,26,4.60
2011,04,24,02,27,4.60
2011,04,24,02,28,4.60
2011,04,24,02,29,4.60
2011,04,24,02,30,4.60
2011,04,24,02,31,4.60
2011,04,24,02,32,4.60
2011,04,24,02,33,4.60
2011,04,24,02,34,4.60
2011,04,24,02,35,4.60
2011,04,24,02,36,4.60
2011,04,24,02,37,4.50
2011,04,24,02,38,4.50
2011,04,24,02,39,4.50
2011,04,24,02,40,4.50
2011,04,24,02,41,4.50
2011,04,24,02,42,4.40
2011,04,24,02,43,4.40
2011,04,24,02,44,4.40
2011,04,24,02,45,4.40
2011,04,24,02,46,4.40
2011,04,24,02,47,4.40
2011,04,24,02,48,4.30
2011,04,24,02,49,4.30
2011,04,24,02,50,4.30
2011,04,24,02,51,4.40
2011,04,24,02,52,4.40
2011,04,24,02,53,4.40
2011,04,24,02,54,4.40
2011,04,24,02,55,4.40
2011,04,24,02,56,4.40
2011,04,24,02,57,4.40
2011,04,24,02,58,4.50
2011,04,24,02,59,4.50
2011,04,24,03,00,4.50
2011,04,24,03,01,4.50
2011,04,24,03,02,4.40
2011,04,24,03,03,4.40
2011,04,24,03,06,4.30
2011,04,24,03,07,4.30
2011,04,24,03,08,4.30
2011,04,24,03,09,4.30
2011,04,24,03,10,4.20
2011,04,24,03,11,4.20
2011,04,24,03,12,4.20
2011,04,24,03,13,4.10
2011,04,24,03,14,4.10
2011,04,24,03,15,4.10
2011,04,24,03,16,4.10
2011,04,24,03,17,4.10
2011,04,24,03,18,4.10
2011,04,24,03,21,4.10
2011,04,24,03,22,4.10
2011,04,24,03,23,4.00
2011,04,24,03,24,4.00
2011,04,24,03,25,4.00
2011,04,24,03,26,4.00
2011,04,24,03,27,4.00
2011,04,24,03,28,4.00
2011,04,24,03,29,4.00
2011,04,24,03,30,4.00
2011,04,24,03,31,4.00
2011,04,24,03,32,4.00
2011,04,24,03,33,4.00
2011,04,24,03,34,4.00
2011,04,24,03,35,4.00
2011,04,24,03,36,4.00
2011,04,24,03,37,4.00
2011,04,24,03,38,4.00
2011,04,24,03,39,4.00
2011,04,24,03,40,4.10
2011,04,24,03,41,4.10
2011,04,24,03,42,4.10
2011,04,24,03,43,4.10
2011,04,24,03,44,4.10
2011,04,24,03,45,4.10
2011,04,24,03,46,4.20
2011,04,24,03,47,4.20
2011,04,24,03,48,4.30
2011,04,24,03,49,4.30
2011,04,24,03,50,4.30
2011,04,24,03,51,4.30
2011,04,24,03,52,4.40
2011,04,24,03,53,4.40
2011,04,24,03,54,4.40
2011,04,24,03,55,4.40
2011,04,24,03,56,4.50
2011,04,24,03,57,4.50
2011,04,24,03,58,4.60
2011,04,24,03,59,4.60
2011,04,24,04,00,4.60
2011,04,24,04,01,4.60
2011,04,24,04,02,4.60
2011,04,24,04,03,4.70
2011,04,24,04,04,4.70
2011,04,24,04,05,4.70
2011,04,24,04,06,4.70
2011,04,24,04,07,4.70
2011,04,24,04,08,4.80
2011,04,24,04,09,4.90
2011,04,24,04,10,5.00
2011,04,24,04,11,5.10
2011,04,24,04,14,5.00
2011,04,24,04,15,5.00
2011,04,24,04,16,5.00
2011,04,24,04,17,5.00
2011,04,24,04,18,5.00
2011,04,24,04,19,5.10
2011,04,24,04,20,5.10
2011,04,24,04,21,5.10
2011,04,24,04,22,5.10
2011,04,24,04,23,5.10
2011,04,24,04,24,5.10
2011,04,24,04,25,5.10
2011,04,24,04,26,5.10
2011,04,24,04,27,5.10
2011,04,24,04,28,5.10
2011,04,24,04,29,5.10
2011,04,24,04,30,5.10
2011,04,24,04,31,5.20
2011,04,24,04,32,5.20
2011,04,24,04,33,5.20
2011,04,24,04,34,5.20
2011,04,24,04,37,5.30
2011,04,24,04,38,5.30
2011,04,24,04,39,5.20
2011,04,24,04,40,5.20
2011,04,24,04,41,5.20
2011,04,24,04,42,5.20
2011,04,24,04,43,5.20
2011,04,24,04,44,5.20
2011,04,24,04,45,5.20
2011,04,24,04,46,5.20
2011,04,24,04,47,5.20
2011,04,24,04,48,5.20
2011,04,24,04,49,5.20
2011,04,24,04,50,5.10
2011,04,24,04,51,5.10
2011,04,24,04,52,5.10
2011,04,24,04,53,5.10
2011,04,24,04,54,5.10
2011,04,24,04,55,5.10
2011,04,24,04,56,5.10
2011,04,24,04,57,5.10
2011,04,24,04,58,5.10
2011,04,24,04,59,5.10
2011,04,24,05,00,5.10
2011,04,24,05,01,5.10
2011,04,24,05,02,5.10
2011,04,24,05,03,5.10
2011,04,24,05,04,5.10
2011,04,24,05,05,5.10
2011,04,24,05,06,5.10
2011,04,24,05,07,5.10
2011,04,24,05,08,5.10
2011,04,24,05,09,5.10
2011,04,24,05,10,5.10
2011,04,24,05,11,5.10
2011,04,24,05,12,5.10
2011,04,24,05,13,5.10
2011,04,24,05,14,5.20
2011,04,24,05,15,5.20
2011,04,24,05,16,5.20
2011,04,24,05,17,5.30
2011,04,24,05,18,5.30
2011,04,24,05,19,5.40
2011,04,24,05,20,5.40
2011,04,24,05,21,5.40
2011,04,24,05,22,5.40
2011,04,24,05,23,5.50
2011,04,24,05,24,5.50
2011,04,24,05,25,5.50
2011,04,24,05,26,5.50
2011,04,24,05,27,5.60
2011,04,24,05,28,5.60
2011,04,24,05,29,5.60
2011,04,24,05,30,5.60
2011,04,24,05,31,5.60
2011,04,24,05,32,5.60
2011,04,24,05,33,5.70
2011,04,24,05,34,5.70
2011,04,24,05,35,5.70
2011,04,24,05,36,5.70
2011,04,24,05,37,5.80
2011,04,24,05,38,5.80
2011,04,24,05,39,5.80
2011,04,24,05,40,5.80
2011,04,24,05,41,5.80
2011,04,24,05,42,5.80
2011,04,24,05,43,5.80
2011,04,24,05,44,5.80
2011,04,24,05,45,5.80
2011,04,24,05,46,5.80
2011,04,24,05,47,5.80
2011,04,24,05,48,5.80
2011,04,24,05,49,5.80
2011,04,24,05,50,5.80
2011,04,24,05,51,5.80
2011,04,24,05,52,5.80
2011,04,24,05,53,5.80
2011,04,24,05,54,5.80
2011,04,24,05,55,5.80
2011,04,24,05,56,5.80
2011,04,24,05,57,5.80
2011,04,24,05,58,5.80
2011,04,24,05,59,5.80
2011,04,24,06,00,5.80
2011,04,24,06,01,5.80
2011,04,24,06,02,5.80
2011,04,24,06,03,5.90
2011,04,24,06,04,5.90
2011,04,24,06,05,5.90
2011,04,24,06,06,6.00
2011,04,24,06,07,6.00
2011,04,24,06,08,6.10
2011,04,24,06,09,6.10
2011,04,24,06,10,6.10
2011,04,24,06,11,6.20
2011,04,24,06,12,6.20
2011,04,24,06,13,6.20
2011,04,24,06,14,6.20
2011,04,24,06,15,6.30
2011,04,24,06,16,6.30
2011,04,24,06,17,6.30
2011,04,24,06,18,6.30
2011,04,24,06,19,6.30
2011,04,24,06,20,6.20
2011,04,24,06,21,6.20
2011,04,24,06,22,6.20
2011,04,24,06,23,6.20
2011,04,24,06,24,6.20
2011,04,24,06,25,6.20
2011,04,24,06,26,6.20
2011,04,24,06,27,6.20
2011,04,24,06,28,6.20
2011,04,24,06,29,6.20
2011,04,24,06,30,6.20
2011,04,24,06,31,6.20
2011,04,24,06,32,6.20
2011,04,24,06,33,6.20
2011,04,24,06,34,6.20
2011,04,24,06,35,6.20
2011,04,24,06,36,6.20
2011,04,24,06,37,6.30
2011,04,24,06,38,6.30
2011,04,24,06,39,6.30
2011,04,24,06,40,6.30
2011,04,24,06,41,6.30
2011,04,24,06,42,6.30
2011,04,24,06,43,6.30
2011,04,24,06,44,6.30
2011,04,24,06,45,6.30
2011,04,24,06,46,6.30
2011,04,24,06,47,6.40
2011,04,24,06,48,6.40
2011,04,24,06,49,6.40
2011,04,24,06,50,6.40
2011,04,24,06,51,6.40
2011,04,24,06,52,6.40
2011,04,24,06,53,6.40
2011,04,24,06,54,6.50
2011,04,24,06,55,6.50
2011,04,24,06,56,6.50
2011,04,24,06,57,6.50
2011,04,24,06,58,6.50
2011,04,24,06,59,6.50
2011,04,24,07,00,6.60
2011,04,24,07,01,6.60
2011,04,24,07,02,6.60
2011,04,24,07,03,6.60
2011,04,24,07,04,6.60
2011,04,24,07,05,6.60
2011,04,24,07,06,6.60
2011,04,24,07,07,6.70
2011,04,24,07,08,6.70
2011,04,24,07,09,6.70
2011,04,24,07,10,6.70
2011,04,24,07,11,6.70
2011,04,24,07,12,6.70
2011,04,24,07,13,6.70
2011,04,24,07,14,6.70
2011,04,24,07,15,6.70
2011,04,24,07,16,6.70
2011,04,24,07,17,6.80
2011,04,24,07,18,6.80
2011,04,24,07,19,6.80
2011,04,24,07,20,6.80
2011,04,24,07,21,6.80
2011,04,24,07,22,6.80
2011,04,24,07,23,6.90
2011,04,24,07,24,6.90
2011,04,24,07,25,6.90
2011,04,24,07,26,6.90
2011,04,24,07,27,6.90
2011,04,24,07,28,7.00
2011,04,24,07,29,7.00
2011,04,24,07,30,7.00
2011,04,24,07,31,7.00
2011,04,24,07,32,7.10
2011,04,24,07,33,7.10
2011,04,24,07,34,7.20
2011,04,24,07,35,7.20
2011,04,24,07,36,7.20
2011,04,24,07,37,7.30
2011,04,24,07,38,7.30
2011,04,24,07,39,7.40
2011,04,24,07,40,7.40
2011,04,24,07,41,7.50
2011,04,24,07,42,7.50
2011,04,24,07,43,7.60
2011,04,24,07,44,7.60
2011,04,24,07,45,7.70
2011,04,24,07,46,7.70
2011,04,24,07,47,7.80
2011,04,24,07,48,7.80
2011,04,24,07,49,7.80
2011,04,24,07,50,7.90
2011,04,24,07,51,8.00
2011,04,24,07,52,8.10
2011,04,24,07,53,8.10
2011,04,24,07,54,8.20
2011,04,24,07,55,8.30
2011,04,24,07,56,8.30
2011,04,24,07,57,8.40
2011,04,24,07,58,8.40
2011,04,24,07,59,8.40
2011,04,24,08,00,8.40
2011,04,24,08,01,8.40
2011,04,24,08,02,8.40
2011,04,24,08,03,8.40
2011,04,24,08,04,8.30
2011,04,24,08,05,8.30
2011,04,24,08,06,8.30
2011,04,24,08,07,8.30
2011,04,24,08,08,8.30
2011,04,24,08,09,8.30
2011,04,24,08,10,8.30
2011,04,24,08,11,8.30
2011,04,24,08,12,8.30
2011,04,24,08,13,8.30
2011,04,24,08,14,8.30
2011,04,24,08,15,8.30
2011,04,24,08,16,8.30
2011,04,24,08,17,8.20
2011,04,24,08,18,8.10
2011,04,24,08,19,8.00
2011,04,24,08,20,8.00
2011,04,24,08,21,7.90
2011,04,24,08,22,7.80
2011,04,24,08,23,7.70
2011,04,24,08,26,7.60
2011,04,24,08,27,7.50
2011,04,24,08,28,7.50
2011,04,24,08,29,7.50
2011,04,24,08,30,7.50
2011,04,24,08,31,7.40
2011,04,24,08,32,7.40
2011,04,24,08,33,7.40
2011,04,24,08,34,7.40
2011,04,24,08,35,7.40
2011,04,24,08,36,7.40
2011,04,24,08,37,7.40
2011,04,24,08,38,7.40
2011,04,24,08,39,7.40
2011,04,24,08,40,7.40
2011,04,24,08,41,7.40
2011,04,24,08,42,7.40
2011,04,24,08,43,7.40
2011,04,24,08,44,7.30
2011,04,24,08,45,7.30
2011,04,24,08,46,7.30
2011,04,24,08,47,7.30
2011,04,24,08,48,7.30
2011,04,24,08,49,7.30
2011,04,24,08,50,7.30
2011,04,24,08,51,7.30
2011,04,24,08,52,7.40
2011,04,24,08,53,7.40
2011,04,24,08,54,7.40
2011,04,24,08,55,7.50
2011,04,24,08,56,7.50
2011,04,24,08,57,7.50
2011,04,24,08,58,7.50
2011,04,24,08,59,7.60
2011,04,24,09,00,7.60
2011,04,24,09,01,7.60
2011,04,24,09,02,7.60
2011,04,24,09,03,7.60
2011,04,24,09,04,7.70
2011,04,24,09,05,7.70
2011,04,24,09,06,7.70
2011,04,24,09,07,7.70
2011,04,24,09,08,7.70
2011,04,24,09,09,7.70
2011,04,24,09,10,7.70
2011,04,24,09,11,7.80
2011,04,24,09,12,7.80
2011,04,24,09,13,7.80
2011,04,24,09,14,7.80
2011,04,24,09,15,7.80
2011,04,24,09,16,7.80
2011,04,24,09,17,7.80
2011,04,24,09,18,7.80
2011,04,24,09,19,7.90
2011,04,24,09,20,7.80
2011,04,24,09,21,7.90
2011,04,24,09,22,7.90
2011,04,24,09,23,7.90
2011,04,24,09,24,7.90
2011,04,24,09,25,7.80
2011,04,24,09,26,7.80
2011,04,24,09,27,7.80
2011,04,24,09,28,7.80
2011,04,24,09,29,7.70
2011,04,24,09,30,7.70
2011,04,24,09,31,7.70
2011,04,24,09,32,7.70
2011,04,24,09,33,7.70
2011,04,24,09,34,7.70
2011,04,24,09,35,7.70
2011,04,24,09,36,7.70
2011,04,24,09,37,7.70
2011,04,24,09,40,7.70
2011,04,24,09,41,7.70
2011,04,24,09,42,7.70
2011,04,24,09,43,7.80
2011,04,24,09,44,7.80
2011,04,24,09,45,7.80
2011,04,24,09,46,7.80
2011,04,24,09,47,7.80
2011,04,24,09,48,7.90
2011,04,24,09,49,7.90
2011,04,24,09,50,7.90
2011,04,24,09,51,8.00
2011,04,24,09,52,8.00
2011,04,24,09,53,8.00
2011,04,24,09,54,8.10
2011,04,24,09,55,8.10
2011,04,24,09,56,8.10
2011,04,24,09,57,8.20
2011,04,24,09,58,8.20
2011,04,24,09,59,8.20
2011,04,24,10,00,8.20
2011,04,24,10,01,8.20
2011,04,24,10,02,8.30
2011,04,24,10,03,8.30
2011,04,24,10,04,8.30
2011,04,24,10,05,8.30
2011,04,24,10,06,8.30
2011,04,24,10,07,8.40
2011,04,24,10,08,8.40
2011,04,24,10,09,8.40
2011,04,24,10,10,8.40
2011,04,24,10,11,8.40
2011,04,24,10,12,8.40
2011,04,24,10,13,8.50
2011,04,24,10,14,8.50
2011,04,24,10,15,8.50
2011,04,24,10,16,8.50
2011,04,24,10,19,8.70
2011,04,24,10,20,8.70
2011,04,24,10,21,8.70
2011,04,24,10,22,8.70
2011,04,24,10,23,8.70
2011,04,24,10,24,8.70
2011,04,24,10,25,8.70
2011,04,24,10,26,8.80
2011,04,24,10,27,8.80
2011,04,24,10,28,8.80
2011,04,24,10,29,8.80
2011,04,24,10,30,8.80
2011,04,24,10,31,8.80
2011,04,24,10,32,8.90
2011,04,24,10,33,8.90
2011,04,24,10,34,8.90
2011,04,24,10,35,8.90
2011,04,24,10,36,8.90
2011,04,24,10,37,8.90
2011,04,24,10,38,8.90
2011,04,24,10,39,8.90
2011,04,24,10,40,8.90
2011,04,24,10,41,9.00
2011,04,24,10,42,9.00
2011,04,24,10,43,9.00
2011,04,24,10,44,8.90
2011,04,24,10,45,8.90
2011,04,24,10,46,8.90
2011,04,24,10,47,8.90
2011,04,24,10,48,8.90
2011,04,24,10,49,8.90
2011,04,24,10,50,8.90
2011,04,24,10,51,8.90
2011,04,24,10,52,8.90
2011,04,24,10,53,8.80
2011,04,24,10,54,8.80
2011,04,24,10,55,8.90
2011,04,24,10,56,8.90
2011,04,24,10,59,9.00
2011,04,24,11,00,9.00
2011,04,24,11,01,9.00
2011,04,24,11,02,9.10
2011,04,24,11,03,9.10
2011,04,24,11,04,9.10
2011,04,24,11,05,9.10
2011,04,24,11,06,9.20
2011,04,24,11,07,9.20
2011,04,24,11,08,9.20
2011,04,24,11,09,9.10
2011,04,24,11,10,9.10
2011,04,24,11,11,9.10
2011,04,24,11,12,9.10
2011,04,24,11,13,9.10
2011,04,24,11,14,9.10
2011,04,24,11,15,9.10
2011,04,24,11,16,9.10
2011,04,24,11,17,9.10
2011,04,24,11,18,9.20
2011,04,24,11,19,9.10
2011,04,24,11,20,9.10
2011,04,24,11,21,9.10
2011,04,24,11,22,9.10
2011,04,24,11,23,9.10
2011,04,24,11,24,9.10
2011,04,24,11,25,9.10
2011,04,24,11,26,9.10
2011,04,24,11,27,9.20
2011,04,24,11,30,9.20
2011,04,24,11,31,9.20
2011,04,24,11,32,9.20
2011,04,24,11,33,9.20
2011,04,24,11,34,9.20
2011,04,24,11,35,9.20
2011,04,24,11,36,9.20
2011,04,24,11,37,9.20
2011,04,24,11,38,9.10
2011,04,24,11,39,9.10
2011,04,24,11,40,9.10
2011,04,24,11,41,9.00
2011,04,24,11,42,9.00
2011,04,24,11,43,9.00
2011,04,24,11,44,9.10
2011,04,24,11,45,9.00
2011,04,24,11,46,9.00
2011,04,24,11,47,9.00
2011,04,24,11,48,9.00
2011,04,24,11,51,8.90
2011,04,24,11,52,8.80
2011,04,24,11,53,8.80
2011,04,24,11,54,8.80
2011,04,24,11,55,8.80
2011,04,24,11,56,8.80
2011,04,24,11,57,8.80
2011,04,24,11,58,8.80
2011,04,24,11,59,8.80
2011,04,24,12,00,8.70
2011,04,24,12,01,8.70
2011,04,24,12,02,8.70
2011,04,24,12,03,8.70
2011,04,24,12,04,8.80
2011,04,24,12,05,8.80
2011,04,24,12,06,8.80
2011,04,24,12,07,8.90
2011,04,24,12,08,8.90
2011,04,24,12,09,8.90
2011,04,24,12,10,8.90
2011,04,24,12,11,8.90
2011,04,24,12,12,8.90
2011,04,24,12,13,8.90
2011,04,24,12,14,8.90
2011,04,24,12,15,8.80
2011,04,24,12,16,8.80
2011,04,24,12,17,8.80
2011,04,24,12,18,8.80
2011,04,24,12,19,8.80
2011,04,24,12,20,8.80
2011,04,24,12,21,8.80
2011,04,24,12,22,8.80
2011,04,24,12,23,8.80
2011,04,24,12,24,8.80
2011,04,24,12,25,8.80
2011,04,24,12,26,8.70
2011,04,24,12,27,8.70
2011,04,24,12,28,8.70
2011,04,24,12,29,8.80
2011,04,24,12,30,8.80
2011,04,24,12,31,8.80
2011,04,24,12,32,8.80
2011,04,24,12,33,8.80
2011,04,24,12,34,8.90
2011,04,24,12,35,8.90
2011,04,24,12,36,8.90
2011,04,24,12,37,8.90
2011,04,24,12,38,8.90
2011,04,24,12,39,8.90
2011,04,24,12,40,9.00
2011,04,24,12,41,9.00
2011,04,24,12,42,9.00
2011,04,24,12,43,9.10
2011,04,24,12,44,9.10
2011,04,24,12,45,9.10
2011,04,24,12,46,9.10
2011,04,24,12,47,9.10
2011,04,24,12,48,9.00
2011,04,24,12,49,9.00
2011,04,24,12,50,8.90
2011,04,24,12,51,8.90
2011,04,24,12,52,8.90
2011,04,24,12,53,8.90
2011,04,24,12,54,8.90
2011,04,24,12,55,8.90
2011,04,24,12,56,8.90
2011,04,24,12,57,9.00
2011,04,24,12,58,9.00
2011,04,24,12,59,9.00
2011,04,24,13,00,9.10
2011,04,24,13,01,9.10
2011,04,24,13,02,9.10
2011,04,24,13,03,9.20
2011,04,24,13,04,9.20
2011,04,24,13,05,9.20
2011,04,24,13,06,9.20
2011,04,24,13,07,9.20
2011,04,24,13,08,9.20
2011,04,24,13,09,9.20
2011,04,24,13,10,9.30
2011,04,24,13,13,9.30
2011,04,24,13,14,9.40
2011,04,24,13,15,9.50
2011,04,24,13,16,9.60
2011,04,24,13,17,9.60
2011,04,24,13,18,9.60
2011,04,24,13,19,9.70
2011,04,24,13,20,9.70
2011,04,24,13,21,9.60
2011,04,24,13,22,9.60
2011,04,24,13,23,9.70
2011,04,24,13,24,9.60
2011,04,24,13,25,9.60
2011,04,24,13,26,9.60
2011,04,24,13,29,9.70
2011,04,24,13,30,9.70
2011,04,24,13,31,9.70
2011,04,24,13,36,9.90
2011,04,24,13,37,9.90
2011,04,24,13,38,9.90
2011,04,24,13,39,9.90
2011,04,24,13,40,9.90
2011,04,24,13,41,9.90
2011,04,24,13,42,9.90
2011,04,24,13,43,9.80
2011,04,24,13,44,9.80
2011,04,24,13,45,9.80
2011,04,24,13,46,9.80
2011,04,24,13,47,9.80
2011,04,24,13,48,9.80
2011,04,24,13,49,9.80
2011,04,24,13,50,9.80
2011,04,24,13,51,9.90
2011,04,24,13,52,10.00
2011,04,24,13,55,10.20
2011,04,24,13,56,10.20
2011,04,24,13,57,10.20
2011,04,24,13,58,10.20
2011,04,24,13,59,10.20
2011,04,24,14,00,10.20
2011,04,24,14,01,10.20
2011,04,24,14,02,10.20
2011,04,24,14,03,10.20
2011,04,24,14,04,10.20
2011,04,24,14,05,10.20
2011,04,24,14,06,10.20
2011,04,24,14,07,10.20
2011,04,24,14,08,10.20
2011,04,24,14,09,10.20
2011,04,24,14,10,10.20
2011,04,24,14,11,10.20
2011,04,24,14,12,10.30
2011,04,24,14,13,10.20
2011,04,24,14,14,10.20
2011,04,24,14,15,10.20
2011,04,24,14,16,10.20
2011,04,24,14,19,10.10
2011,04,24,14,20,10.00
2011,04,24,14,21,10.00
2011,04,24,14,22,10.00
2011,04,24,14,23,10.00
2011,04,24,14,24,10.00
2011,04,24,14,25,10.00
2011,04,24,14,26,10.10
2011,04,24,14,27,10.10
2011,04,24,14,28,10.10
2011,04,24,14,29,10.10
2011,04,24,14,30,10.20
2011,04,24,14,31,10.20
2011,04,24,14,32,10.30
2011,04,24,14,33,10.40
2011,04,24,14,34,10.40
2011,04,24,14,35,10.50
2011,04,24,14,36,10.50
2011,04,24,14,37,10.60
2011,04,24,14,38,10.50
2011,04,24,14,39,10.60
2011,04,24,14,40,10.50
2011,04,24,14,41,10.50
2011,04,24,14,42,10.60
2011,04,24,14,43,10.70
2011,04,24,14,44,10.70
2011,04,24,14,45,10.70
2011,04,24,14,46,10.70
2011,04,24,14,47,10.80
2011,04,24,14,48,10.80
2011,04,24,14,49,10.80
2011,04,24,14,50,10.80
2011,04,24,14,51,10.80
2011,04,24,14,52,10.80
2011,04,24,14,53,10.80
2011,04,24,14,54,10.80
2011,04,24,14,55,10.80
2011,04,24,14,58,10.70
2011,04,24,14,59,10.60
2011,04,24,15,02,10.70
2011,04,24,15,03,10.70
2011,04,24,15,04,10.60
2011,04,24,15,05,10.70
2011,04,24,15,06,10.70
2011,04,24,15,07,10.70
2011,04,24,15,08,10.70
2011,04,24,15,09,10.70
2011,04,24,15,10,10.70
2011,04,24,15,11,10.70
2011,04,24,15,12,10.70
2011,04,24,15,13,10.80
2011,04,24,15,14,10.80
2011,04,24,15,15,10.80
2011,04,24,15,16,10.80
2011,04,24,15,17,10.80
2011,04,24,15,18,10.80
2011,04,24,15,19,10.80
2011,04,24,15,20,10.80
2011,04,24,15,21,10.80
2011,04,24,15,22,10.80
2011,04,24,15,23,10.80
2011,04,24,15,24,10.80
2011,04,24,15,25,10.80
2011,04,24,15,26,10.80
2011,04,24,15,27,10.80
2011,04,24,15,28,10.80
2011,04,24,15,29,10.70
2011,04,24,15,30,10.70
2011,04,24,15,31,10.80
2011,04,24,15,32,10.80
2011,04,24,15,33,10.70
2011,04,24,15,34,10.80
2011,04,24,15,35,10.80
2011,04,24,15,36,10.80
2011,04,24,15,37,10.80
2011,04,24,15,38,10.80
2011,04,24,15,39,10.90
2011,04,24,15,40,10.90
2011,04,24,15,41,11.00
2011,04,24,15,42,11.00
2011,04,24,15,43,11.10
2011,04,24,15,44,11.10
2011,04,24,15,45,11.10
2011,04,24,15,46,11.20
2011,04,24,15,47,11.20
2011,04,24,15,48,11.20
2011,04,24,15,49,11.20
2011,04,24,15,50,11.20
2011,04,24,15,51,11.30
2011,04,24,15,52,11.30
2011,04,24,15,53,11.30
2011,04,24,15,54,11.30
2011,04,24,15,55,11.30
2011,04,24,15,56,11.20
2011,04,24,15,57,11.20
2011,04,24,15,58,11.20
2011,04,24,15,59,11.20
2011,04,24,16,00,11.10
2011,04,24,16,01,11.10
2011,04,24,16,02,11.10
2011,04,24,16,03,11.10
2011,04,24,16,04,11.10
2011,04,24,16,05,11.00
2011,04,24,16,06,11.00
2011,04,24,16,07,11.00
2011,04,24,16,08,10.90
2011,04,24,16,09,10.90
2011,04,24,16,10,10.90
2011,04,24,16,11,10.90
2011,04,24,16,12,10.90
2011,04,24,16,15,10.80
2011,04,24,16,16,10.80
2011,04,24,16,17,10.80
2011,04,24,16,18,10.80
2011,04,24,16,19,10.80
2011,04,24,16,20,10.80
2011,04,24,16,21,10.80
2011,04,24,16,22,10.80
2011,04,24,16,23,10.80
2011,04,24,16,24,10.80
2011,04,24,16,25,10.80
2011,04,24,16,26,10.80
2011,04,24,16,27,10.80
2011,04,24,16,28,10.80
2011,04,24,16,29,10.80
2011,04,24,16,30,10.90
2011,04,24,16,31,10.90
2011,04,24,16,32,10.90
2011,04,24,16,33,10.90
2011,04,24,16,34,10.90
2011,04,24,16,35,10.90
2011,04,24,16,36,10.90
2011,04,24,16,37,10.90
2011,04,24,16,38,10.90
2011,04,24,16,39,10.80
2011,04,24,16,40,10.80
2011,04,24,16,41,10.80
2011,04,24,16,46,10.70
2011,04,24,16,47,10.70
2011,04,24,16,48,10.70
2011,04,24,16,49,10.70
2011,04,24,16,50,10.70
2011,04,24,16,51,10.80
2011,04,24,16,52,10.80
2011,04,24,16,55,10.70
2011,04,24,16,56,10.70
2011,04,24,16,57,10.70
2011,04,24,16,58,10.70
2011,04,24,16,59,10.70
2011,04,24,17,00,10.70
2011,04,24,17,01,10.70
2011,04,24,17,02,10.80
2011,04,24,17,03,10.80
2011,04,24,17,04,10.80
2011,04,24,17,05,10.80
2011,04,24,17,06,10.80
2011,04,24,17,07,10.80
2011,04,24,17,08,10.80
2011,04,24,17,09,10.80
2011,04,24,17,10,10.80
2011,04,24,17,11,10.80
2011,04,24,17,12,10.80
2011,04,24,17,13,10.80
2011,04,24,17,14,10.80
2011,04,24,17,17,10.80
2011,04,24,17,18,10.90
2011,04,24,17,19,10.90
2011,04,24,17,20,10.90
2011,04,24,17,21,10.90
2011,04,24,17,22,10.90
2011,04,24,17,23,10.90
2011,04,24,17,24,10.80
2011,04,24,17,25,10.80
2011,04,24,17,26,10.80
2011,04,24,17,27,10.80
2011,04,24,17,28,10.80
2011,04,24,17,29,10.80
2011,04,24,17,30,10.80
2011,04,24,17,31,10.80
2011,04,24,17,32,10.70
2011,04,24,17,33,10.70
2011,04,24,17,34,10.70
2011,04,24,17,35,10.70
2011,04,24,17,36,10.70
2011,04,24,17,37,10.60
2011,04,24,17,38,10.60
2011,04,24,17,39,10.60
2011,04,24,17,40,10.60
2011,04,24,17,41,10.60
2011,04,24,17,42,10.50
2011,04,24,17,43,10.50
2011,04,24,17,44,10.50
2011,04,24,17,45,10.50
2011,04,24,17,46,10.40
2011,04,24,17,47,10.40
2011,04,24,17,48,10.40
2011,04,24,17,49,10.30
2011,04,24,17,50,10.30
2011,04,24,17,51,10.30
2011,04,24,17,52,10.30
2011,04,24,17,53,10.30
2011,04,24,17,54,10.30
2011,04,24,17,55,10.30
2011,04,24,17,56,10.30
2011,04,24,17,57,10.30
2011,04,24,17,58,10.30
2011,04,24,17,59,10.20
2011,04,24,18,00,10.20
2011,04,24,18,01,10.20
2011,04,24,18,02,10.20
2011,04,24,18,03,10.30
2011,04,24,18,04,10.30
2011,04,24,18,05,10.30
2011,04,24,18,06,10.30
2011,04,24,18,07,10.40
2011,04,24,18,08,10.40
2011,04,24,18,09,10.40
2011,04,24,18,12,10.30
2011,04,24,18,13,10.30
2011,04,24,18,14,10.30
2011,04,24,18,15,10.30
2011,04,24,18,16,10.30
2011,04,24,18,17,10.30
2011,04,24,18,18,10.30
2011,04,24,18,19,10.30
2011,04,24,18,20,10.30
2011,04,24,18,21,10.30
2011,04,24,18,22,10.30
2011,04,24,18,23,10.20
2011,04,24,18,24,10.20
2011,04,24,18,25,10.20
2011,04,24,18,26,10.10
2011,04,24,18,27,10.10
2011,04,24,18,28,10.10
2011,04,24,18,29,10.10
2011,04,24,18,30,10.20
2011,04,24,18,31,10.10
2011,04,24,18,32,10.10
2011,04,24,18,33,10.10
2011,04,24,18,34,10.10
2011,04,24,18,35,10.10
2011,04,24,18,36,10.10
2011,04,24,18,37,10.20
2011,04,24,18,38,10.10
2011,04,24,18,39,10.20
2011,04,24,18,40,10.10
2011,04,24,18,41,10.10
2011,04,24,18,44,10.00
2011,04,24,18,45,10.00
2011,04,24,18,46,10.00
2011,04,24,18,47,10.00
2011,04,24,18,48,10.10
2011,04,24,18,49,10.10
2011,04,24,18,50,10.00